Погода в Карагаче

Россия / Оренбургская область     51°14′47″N   56°24′59″E
темп.,
°C
ветер,
м/с
пор.,
м/с
влажн.,
%
обл.,
%
осадки,
мм/ч
давл.,
гПа
погр.,
м
28 ноября, вс
вс2823:00−15вюв32885 0.0 103418
02:00−14юв32885 0.0 103428
05:00−13вюв338599 0.0 103238
08:00−11вюв3284100 0.0 103136
11:00−7вюв378195 0.0 1030167
14:00−3юв3879100 0.0 1029313
17:00−5вюв3485100 0.0 102861
20:00−6вюв2387100 0.0 102749
29 ноября, пн
пн2923:00−8юв2289100 0.0 102829
02:00−8юв2287100 0.0 102726
05:00−9юв228764 0.0 102730
08:00−12вюв22896 0.0 102714
11:00−9вюв22845 0.0 102837
14:00−5юв22815 0.0 102759
17:00−9юв228712 0.0 102710
20:00−11юв22865 0.0 102715
30 ноября, вт
вт3023:00−12юв22845 0.0 102715
02:00−11вюв33805 0.0 102534
05:00−11вюв338268 0.0 102432
08:00−9юв477711 0.0 1022103
11:00−6юв41376100 0.0 1020227
14:00−1ююв61569100 0.0 1017362
17:00−1ююв61671100 0.0 1015332
20:000ююв71775100 0.0 1014395
1 декабря, ср
ср123:00+1ю81879100 0.0 1012461
02:00+2ююв71677100 0.9 1009405
05:00+2ююв51379100 0.9 1008331
08:00+2юв51279100 0.0 1006314
11:00+2юв51280100 0.0 1005286
14:00+3юв71684100 0.0 1002406
17:00+3ююв715826 0.0 1000392
20:00+2юв71383100 0.0 998294
2 декабря, чт
чт223:00+2ю61486100 0.0 999334
02:00+2ююз6149360 0.0 1000372
05:00+2зюз71398100 0.0 1003598
08:000з71083100 0.0 1006633
11:00−1зюз5988100 0.0 1010462
14:00−2з5989100 0.0 1011529
17:00−4зюз379265 0.0 1014158
20:00−2з4885100 0.0 1016603